Location: Copeville
(33.0796°N, 96.4155°W)
Time: 05:39:41
(UTC+00:00)

JUGNU - Pass Details

Date: 20 April 2024
Orbit: 835 x 862 km, 20.0° (Epoch: 19 May)

Event Time Altitude Azimuth Distance (km) Brightness Sun altitude
Rises 01:44:02 0° 242° (WSW) 3,369 ? -9.7°
Reaches altitude 10° 01:47:06 10° 227° (SW) 2,439 ? -10.3°
Maximum altitude 01:51:30 22° 178° (S) 1,753 ? -11.2°
Enters shadow 01:55:04 13° 136° (SE) 2,237 ? -11.9°
